TimeCST,TemperatureF,Dew PointF,Humidity,Sea Level PressureIn,VisibilityMPH,Wind Direction,Wind SpeedMPH,Gust SpeedMPH,PrecipitationIn,Events,Conditions,WindDirDegrees,DateUTC
12:15 AM,21.9,6.1,51,30.30,10.0,SE,15.0,-,N/A,,Overcast,130,2013-01-25 06:15:00
12:35 AM,21.9,6.1,51,30.30,10.0,ESE,9.2,-,N/A,,Overcast,120,2013-01-25 06:35:00
12:55 AM,21.9,5.9,50,30.28,10.0,ESE,12.7,-,N/A,,Overcast,120,2013-01-25 06:55:00
1:15 AM,21.9,6.8,52,30.27,10.0,SE,11.5,17.3,N/A,,Overcast,130,2013-01-25 07:15:00
1:35 AM,21.9,6.8,52,30.26,10.0,SE,11.5,-,N/A,,Overcast,130,2013-01-25 07:35:00
1:55 AM,21.9,6.4,51,30.25,10.0,SE,11.5,-,N/A,,Overcast,140,2013-01-25 07:55:00
2:15 AM,21.9,6.3,51,30.25,10.0,SE,12.7,-,N/A,,Overcast,140,2013-01-25 08:15:00
2:35 AM,21.9,6.3,51,30.23,10.0,SE,11.5,-,N/A,,Overcast,140,2013-01-25 08:35:00
2:55 AM,22.1,5.9,50,30.21,10.0,SE,13.8,-,N/A,,Overcast,140,2013-01-25 08:55:00
3:15 AM,21.9,5.9,50,30.20,10.0,SE,11.5,-,N/A,,Overcast,130,2013-01-25 09:15:00
3:35 AM,21.9,6.4,51,30.19,10.0,SE,9.2,-,N/A,,Overcast,130,2013-01-25 09:35:00
3:55 AM,21.9,7.3,54,30.18,7.0,SE,11.5,-,N/A,Snow,Light Snow,140,2013-01-25 09:55:00
4:15 AM,20.3,12.7,73,30.17,2.0,SSE,11.5,-,N/A,Snow,Light Snow,150,2013-01-25 10:15:00
4:35 AM,19.8,14.0,78,30.16,1.8,SSE,11.5,-,N/A,Snow,Light Snow,150,2013-01-25 10:35:00
4:55 AM,19.4,15.1,83,30.15,1.8,SSE,10.4,-,N/A,Snow,Light Snow,160,2013-01-25 10:55:00
5:15 AM,19.4,15.8,86,30.15,3.0,SSE,10.4,-,N/A,Snow,Light Snow,160,2013-01-25 11:15:00
5:35 AM,19.4,15.6,85,30.16,2.0,South,6.9,-,N/A,Snow,Light Snow,170,2013-01-25 11:35:00
5:55 AM,19.4,15.8,86,30.16,1.8,South,6.9,-,N/A,Snow,Light Snow,170,2013-01-25 11:55:00
6:15 AM,19.4,16.3,88,30.14,5.0,SSE,8.1,-,N/A,,Overcast,160,2013-01-25 12:15:00
6:35 AM,19.4,16.5,89,30.14,7.0,SSE,6.9,-,N/A,,Overcast,160,2013-01-25 12:35:00
6:55 AM,19.4,16.7,89,30.12,4.0,South,9.2,-,N/A,Snow,Light Snow,170,2013-01-25 12:55:00
7:15 AM,20.1,17.4,89,30.12,7.0,South,6.9,-,N/A,,Overcast,180,2013-01-25 13:15:00
7:35 AM,20.3,16.9,87,30.13,7.0,South,5.8,-,N/A,,Overcast,190,2013-01-25 13:35:00
7:55 AM,20.7,17.4,87,30.11,10.0,South,8.1,-,N/A,,Overcast,180,2013-01-25 13:55:00
8:15 AM,20.7,17.4,87,30.11,10.0,South,9.2,-,N/A,,Overcast,180,2013-01-25 14:15:00
8:35 AM,21.2,17.6,86,30.10,10.0,South,9.2,-,N/A,,Overcast,190,2013-01-25 14:35:00
8:55 AM,21.6,17.6,85,30.10,10.0,SSW,8.1,-,N/A,,Overcast,200,2013-01-25 14:55:00
9:15 AM,22.1,17.6,83,30.10,10.0,SSW,9.2,-,N/A,,Overcast,210,2013-01-25 15:15:00
9:35 AM,22.8,17.6,80,30.10,10.0,SW,9.2,-,N/A,,Overcast,220,2013-01-25 15:35:00
9:55 AM,23.4,17.4,78,30.10,10.0,SW,9.2,-,N/A,,Overcast,220,2013-01-25 15:55:00
10:15 AM,24.4,17.8,76,30.09,10.0,SW,9.2,-,N/A,,Overcast,230,2013-01-25 16:15:00
10:35 AM,24.8,17.8,75,30.08,10.0,SW,11.5,-,N/A,,Overcast,230,2013-01-25 16:35:00
10:55 AM,25.7,18.5,74,30.07,10.0,WSW,9.2,-,N/A,,Overcast,240,2013-01-25 16:55:00
11:15 AM,26.6,18.0,70,30.06,7.0,WSW,12.7,-,N/A,,Overcast,240,2013-01-25 17:15:00
11:35 AM,27.5,18.3,68,30.05,10.0,West,12.7,17.3,N/A,,Overcast,270,2013-01-25 17:35:00
11:55 AM,27.5,18.0,67,30.04,10.0,West,15.0,-,N/A,,Overcast,260,2013-01-25 17:55:00
12:15 PM,28.4,19.9,71,30.03,10.0,WSW,12.7,-,N/A,,Overcast,240,2013-01-25 18:15:00
12:35 PM,28.9,19.2,67,30.01,10.0,West,15.0,-,N/A,,Mostly Cloudy,270,2013-01-25 18:35:00
12:55 PM,30.0,20.1,67,30.00,10.0,West,16.1,19.6,N/A,,Clear,270,2013-01-25 18:55:00
1:15 PM,31.5,21.6,67,29.99,10.0,West,15.0,-,N/A,,Clear,260,2013-01-25 19:15:00
1:35 PM,32.0,21.6,65,29.99,10.0,WSW,13.8,21.9,N/A,,Scattered Clouds,240,2013-01-25 19:35:00
1:55 PM,32.5,21.4,64,29.98,10.0,West,17.3,-,N/A,,Clear,260,2013-01-25 19:55:00
2:15 PM,33.3,21.4,62,29.98,10.0,WSW,18.4,25.3,N/A,,Clear,250,2013-01-25 20:15:00
2:35 PM,34.2,20.5,57,29.98,10.0,WSW,16.1,27.6,N/A,,Clear,250,2013-01-25 20:35:00
2:55 PM,34.3,20.3,57,29.98,10.0,West,16.1,27.6,N/A,,Clear,260,2013-01-25 20:55:00
3:15 PM,34.7,20.5,56,29.98,10.0,West,20.7,24.2,N/A,,Clear,270,2013-01-25 21:15:00
3:35 PM,34.9,20.1,55,29.98,10.0,West,21.9,27.6,N/A,,Clear,270,2013-01-25 21:35:00
3:55 PM,34.9,19.8,54,29.98,10.0,West,17.3,26.5,N/A,,Clear,280,2013-01-25 21:55:00
4:15 PM,34.5,20.3,56,29.99,10.0,West,15.0,19.6,N/A,,Clear,280,2013-01-25 22:15:00
4:35 PM,34.3,20.5,57,30.00,10.0,West,16.1,23.0,N/A,,Clear,280,2013-01-25 22:35:00
4:55 PM,33.1,20.3,59,30.01,10.0,WNW,20.7,25.3,N/A,,Clear,300,2013-01-25 22:55:00
5:15 PM,31.8,20.5,63,30.02,10.0,WNW,16.1,25.3,N/A,,Clear,300,2013-01-25 23:15:00
5:35 PM,29.8,21.2,70,30.04,10.0,NW,17.3,-,N/A,,Clear,320,2013-01-25 23:35:00
5:55 PM,28.4,21.0,74,30.05,10.0,NW,13.8,-,N/A,,Clear,320,2013-01-25 23:55:00
6:15 PM,27.5,20.3,74,30.06,10.0,NW,11.5,-,N/A,,Scattered Clouds,310,2013-01-26 00:15:00
6:35 PM,26.2,19.8,76,30.07,10.0,NW,6.9,-,N/A,,Scattered Clouds,310,2013-01-26 00:35:00
6:55 PM,26.6,20.3,77,30.07,10.0,WNW,8.1,-,N/A,,Overcast,300,2013-01-26 00:55:00
7:15 PM,26.1,19.8,77,30.08,10.0,WNW,6.9,-,N/A,,Mostly Cloudy,300,2013-01-26 01:15:00
7:35 PM,25.7,19.8,78,30.08,10.0,West,5.8,-,N/A,,Scattered Clouds,280,2013-01-26 01:35:00
7:55 PM,26.6,18.5,71,30.08,10.0,WNW,15.0,20.7,N/A,,Clear,300,2013-01-26 01:55:00
8:15 PM,26.1,16.9,68,30.08,10.0,WNW,15.0,-,N/A,,Clear,300,2013-01-26 02:15:00
8:35 PM,25.2,14.9,65,30.09,10.0,NW,17.3,-,N/A,,Clear,310,2013-01-26 02:35:00
8:55 PM,24.1,14.5,67,30.11,10.0,NW,12.7,-,N/A,,Clear,320,2013-01-26 02:55:00
9:15 PM,23.4,13.3,65,30.11,10.0,NW,17.3,-,N/A,,Clear,320,2013-01-26 03:15:00
9:35 PM,23.0,12.2,63,30.13,10.0,NW,11.5,-,N/A,,Clear,320,2013-01-26 03:35:00
9:55 PM,21.2,12.0,68,30.14,10.0,NW,10.4,-,N/A,,Clear,320,2013-01-26 03:55:00
10:15 PM,20.3,11.8,70,30.15,10.0,NW,11.5,-,N/A,,Clear,320,2013-01-26 04:15:00
10:35 PM,19.9,11.7,70,30.16,10.0,WNW,10.4,-,N/A,,Clear,300,2013-01-26 04:35:00
10:55 PM,20.1,11.3,69,30.18,10.0,NW,15.0,-,N/A,,Clear,310,2013-01-26 04:55:00
11:15 PM,19.4,11.3,71,30.18,10.0,NW,11.5,-,N/A,,Clear,320,2013-01-26 05:15:00
11:35 PM,19.4,11.7,72,30.19,10.0,NW,12.7,-,N/A,,Clear,320,2013-01-26 05:35:00
11:55 PM,19.0,11.5,72,30.21,10.0,NW,11.5,-,N/A,,Clear,320,2013-01-26 05:55:00